Regional Weather Roundup
Issued by NWS Charleston, WV

Home | Current Version | Previous Version | Graphics & Text | Print | Product List | Glossary On
Versions: 1 2 3 4 5 6 7 8 9 10 11 12 13 14 15 16 17 18 19 20 21 22 23 24 25 26 27 28 29 30 31 32 33 34 35 36 37 38 39 40 41 42 43 44 45 46 47 48 49 50
000
ASUS41 KRLX 201810
RWRRLX
West Virginia Regional Weather Roundup
National Weather Service Charleston WV
200 PM EDT WED SEP 20 2017

Note: "fair" indicates few or no clouds below 12,000 feet with no
significant weather and/or obstructions to visibility.

WVZ003-201900-
Northern Panhandle of West Virginia

CITY           SKY/WX    TMP DP  RH WIND       PRES   REMARKS
WHEELING       CLOUDY    77  64  64 VRB5      30.04F
$$

WVZ009-201900-
Northwest West Virginia

CITY           SKY/WX    TMP DP  RH WIND       PRES   REMARKS
PARKERSBURG    CLOUDY    78  69  73 NW3       30.05F
$$

WVZ006-201900-
Western West Virginia

CITY           SKY/WX    TMP DP  RH WIND       PRES   REMARKS
HUNTINGTON     MOSUNNY   82  66  58 NW6       30.04F
$$

WVZ015-201900-
West Central West Virginia

CITY           SKY/WX    TMP DP  RH WIND       PRES   REMARKS
CHARLESTON     PTSUNNY   83  64  52 VRB5      30.03F
$$

WVZ022-031-201900-
North Central West Virginia

CITY           SKY/WX    TMP DP  RH WIND       PRES   REMARKS
CLARKSBURG     MOSUNNY   79  64  60 CALM      30.04F
MORGANTOWN     SUNNY     81  66  60 VRB3      30.04F
$$

WVZ025-035-042-045-201900-
Southern West Virginia

CITY           SKY/WX    TMP DP  RH WIND       PRES   REMARKS
BECKLEY        CLOUDY    71  63  75 SW7       30.11F
LOGAN          PTSUNNY   77  66  69 CALM      30.07F
BLUEFIELD      PTSUNNY   72  59  63 NW8       30.13F
LEWISBURG      MOSUNNY   72  59  63 NE5       30.10F
$$

WVZ047-201900-
Northern Mountains of West Virginia

CITY           SKY/WX    TMP DP  RH WIND       PRES   REMARKS
ELKINS         CLOUDY    74  62  66 VRB3      30.09F
$$

WVZ052-201900-
Eastern Panhandle of West Virginia

CITY           SKY/WX    TMP DP  RH WIND       PRES   REMARKS
MARTINSBURG    SUNNY     85  58  39 NW10      29.97F
PETERSBURG     MOSUNNY   87  64  45 W3        30.00F
$$



USA.gov is the U.S. government's official web portal to all federal, state and local government web resources and services.